,,PA_Meas_PMT16A,,PR_Meas_QMR101_102,,RH_Meas_QMH101,,SR_Meas_QMS101,,TA_Meas_QMH101,,GenWind,,GenWind,
time,status,PA,status,PR,status,RH,status,SR,status,TA,status,DirAvg,status,SpdAvg,
2009-09-14, 00:00:05,VALID,918.549,VALID,0,VALID,96.7564,VALID,0,VALID,20.3433,VALID,271,VALID,0.338281,
2009-09-14, 00:01:05,VALID,918.549,VALID,0,VALID,96.8555,VALID,0,VALID,20.3628,VALID,271,VALID,0.289063,
2009-09-14, 00:02:05,VALID,918.52,VALID,0,VALID,96.8784,VALID,0.107441,VALID,20.4213,VALID,271,VALID,0.337891,
2009-09-14, 00:03:05,VALID,918.504,VALID,0,VALID,96.9317,VALID,0.107441,VALID,20.4408,VALID,271,VALID,0.274609,
2009-09-14, 00:04:05,VALID,918.519,VALID,0,VALID,96.9622,VALID,0,VALID,20.4603,VALID,271,VALID,0.280859,
2009-09-14, 00:05:05,VALID,918.525,VALID,0,VALID,96.947,VALID,0.107441,VALID,20.4993,VALID,271,VALID,0.328906,
2009-09-14, 00:06:05,VALID,918.535,VALID,0,VALID,96.9851,VALID,0,VALID,20.5188,VALID,270,VALID,0.445313,
2009-09-14, 00:07:05,VALID,918.496,VALID,0,VALID,96.9622,VALID,0,VALID,20.5383,VALID,270,VALID,0.224219,
2009-09-14, 00:08:05,VALID,918.509,VALID,0,VALID,96.9851,VALID,0,VALID,20.5578,VALID,270,VALID,0,
2009-09-14, 00:09:05,VALID,918.483,VALID,0,VALID,96.9927,VALID,0,VALID,20.5773,VALID,270,VALID,0,
2009-09-14, 00:10:05,VALID,918.424,VALID,0,VALID,97.0156,VALID,0,VALID,20.6163,VALID,270,VALID,0,
2009-09-14, 00:11:05,VALID,918.406,VALID,0,VALID,96.9775,VALID,0,VALID,20.6358,VALID,270,VALID,0.00234375,
2009-09-14, 00:12:05,VALID,918.39,VALID,0,VALID,96.7793,VALID,0.107441,VALID,20.5773,VALID,270,VALID,0.529688,
2009-09-14, 00:13:05,VALID,918.365,VALID,0,VALID,96.7411,VALID,0.107441,VALID,20.4977,VALID,270,VALID,0.507813,
2009-09-14, 00:14:05,VALID,918.341,VALID,0,VALID,96.7335,VALID,0,VALID,20.4408,VALID,270,VALID,0.471094,
2009-09-14, 00:15:05,VALID,918.345,VALID,0,VALID,96.8479,VALID,0,VALID,20.4603,VALID,270,VALID,0.438672,
2009-09-14, 00:16:05,VALID,918.296,VALID,0,VALID,96.886,VALID,0,VALID,20.4798,VALID,270,VALID,0.360156,
2009-09-14, 00:17:05,VALID,918.296,VALID,0,VALID,96.9241,VALID,0,VALID,20.4798,VALID,270,VALID,0.183203,
2009-09-14, 00:18:05,VALID,918.311,VALID,0,VALID,96.9622,VALID,0.107441,VALID,20.4977,VALID,270,VALID,0,
2009-09-14, 00:19:05,VALID,918.283,VALID,0,VALID,96.9698,VALID,0,VALID,20.5383,VALID,270,VALID,0,
2009-09-14, 00:20:05,VALID,918.315,VALID,0,VALID,96.9698,VALID,0,VALID,20.5578,VALID,270,VALID,0.196484,
2009-09-14, 00:21:05,VALID,918.344,VALID,0,VALID,96.825,VALID,0,VALID,20.5383,VALID,270,VALID,0.319141,
2009-09-14, 00:22:05,VALID,918.333,VALID,0,VALID,96.6268,VALID,0,VALID,20.4423,VALID,270,VALID,0.439453,
2009-09-14, 00:23:05,VALID,918.32,VALID,0,VALID,96.6802,VALID,0,VALID,20.3823,VALID,270,VALID,0.420703,
2009-09-14, 00:24:05,VALID,918.341,VALID,0,VALID,96.7488,VALID,0,VALID,20.4018,VALID,270,VALID,0.542969,
2009-09-14, 00:25:05,VALID,918.313,VALID,0,VALID,96.8021,VALID,0,VALID,20.4018,VALID,270,VALID,0.604688,
2009-09-14, 00:26:05,VALID,918.326,VALID,0,VALID,96.8021,VALID,0.107441,VALID,20.3823,VALID,270,VALID,0.803516,
2009-09-14, 00:27:05,VALID,918.278,VALID,0,VALID,96.9241,VALID,0,VALID,20.4213,VALID,270,VALID,0.786719,
2009-09-14, 00:28:05,VALID,918.251,VALID,0,VALID,96.9241,VALID,0,VALID,20.4408,VALID,270,VALID,0.680078,
2009-09-14, 00:29:05,VALID,918.266,VALID,0,VALID,96.9012,VALID,0,VALID,20.4213,VALID,271,VALID,0.753125,
2009-09-14, 00:30:05,VALID,918.221,VALID,0,VALID,96.8784,VALID,0,VALID,20.4408,VALID,271,VALID,0.680469,
2009-09-14, 00:31:05,VALID,918.198,VALID,0,VALID,96.8936,VALID,0,VALID,20.4018,VALID,271,VALID,0.892187,
2009-09-14, 00:32:05,VALID,918.172,VALID,0,VALID,96.947,VALID,0,VALID,20.4408,VALID,271,VALID,1.11836,
2009-09-14, 00:33:05,VALID,918.164,VALID,0,VALID,96.9546,VALID,0,VALID,20.4213,VALID,270,VALID,1.1375,
2009-09-14, 00:34:05,VALID,918.178,VALID,0,VALID,96.9622,VALID,0,VALID,20.4213,VALID,271,VALID,0.75625,
2009-09-14, 00:35:05,VALID,918.152,VALID,0,VALID,97.008,VALID,0,VALID,20.4408,VALID,271,VALID,0.608594,
2009-09-14, 00:36:05,VALID,918.16,VALID,0,VALID,97.0003,VALID,0,VALID,20.4408,VALID,271,VALID,0.373047,
2009-09-14, 00:37:05,VALID,918.147,VALID,0,VALID,96.9775,VALID,0,VALID,20.4603,VALID,271,VALID,0.868359,
2009-09-14, 00:38:05,VALID,918.125,VALID,0,VALID,96.947,VALID,0,VALID,20.4408,VALID,271,VALID,0.966016,
2009-09-14, 00:39:05,VALID,918.108,VALID,0,VALID,97.0232,VALID,0,VALID,20.4603,VALID,271,VALID,0.730469,
2009-09-14, 00:40:05,VALID,918.135,VALID,0,VALID,97.0003,VALID,0,VALID,20.4603,VALID,271,VALID,0.502734,
2009-09-14, 00:41:05,VALID,918.107,VALID,0,VALID,97.0156,VALID,0,VALID,20.4798,VALID,271,VALID,0.460156,
2009-09-14, 00:42:05,VALID,918.13,VALID,0,VALID,97.0308,VALID,0,VALID,20.4993,VALID,271,VALID,0.469531,
2009-09-14, 00:43:05,VALID,918.158,VALID,0,VALID,97.0232,VALID,0,VALID,20.5204,VALID,271,VALID,0.421484,
2009-09-14, 00:44:05,VALID,918.154,VALID,0,VALID,97.0461,VALID,0,VALID,20.4993,VALID,271,VALID,0.205469,
2009-09-14, 00:45:05,VALID,918.167,VALID,0,VALID,97.0766,VALID,0,VALID,20.5383,VALID,271,VALID,0.313281,
2009-09-14, 00:46:05,VALID,918.162,VALID,0,VALID,96.9927,VALID,0,VALID,20.5188,VALID,271,VALID,0.482812,
2009-09-14, 00:47:05,VALID,918.145,VALID,0,VALID,97.0918,VALID,0,VALID,20.5578,VALID,271,VALID,0.439844,
2009-09-14, 00:48:05,VALID,918.156,VALID,0,VALID,97.0461,VALID,0,VALID,20.5773,VALID,271,VALID,0.482031,
2009-09-14, 00:49:05,VALID,918.141,VALID,0,VALID,96.9851,VALID,0,VALID,20.5578,VALID,271,VALID,0.602734,
2009-09-14, 00:50:05,VALID,918.118,VALID,0,VALID,97.0156,VALID,0,VALID,20.5383,VALID,271,VALID,0.519141,
2009-09-14, 00:51:05,VALID,918.115,VALID,0,VALID,97.069,VALID,0,VALID,20.5773,VALID,271,VALID,0.415625,
2009-09-14, 00:52:05,VALID,918.164,VALID,0,VALID,97.0003,VALID,0.107441,VALID,20.5984,VALID,271,VALID,0.687109,
2009-09-14, 00:53:05,VALID,918.139,VALID,0,VALID,96.9241,VALID,0,VALID,20.5188,VALID,271,VALID,0.651953,
2009-09-14, 00:54:05,VALID,918.135,VALID,0,VALID,96.9622,VALID,0,VALID,20.5188,VALID,271,VALID,0.627344,
2009-09-14, 00:55:05,VALID,918.136,VALID,0,VALID,96.9089,VALID,0,VALID,20.4798,VALID,271,VALID,0.902734,
2009-09-14, 00:56:05,VALID,918.127,VALID,0,VALID,97.0156,VALID,0,VALID,20.4993,VALID,271,VALID,0.841016,
2009-09-14, 00:57:05,VALID,918.124,VALID,0,VALID,96.9775,VALID,0,VALID,20.4993,VALID,271,VALID,1.00625,
2009-09-14, 00:58:05,VALID,918.067,VALID,0,VALID,96.9241,VALID,0,VALID,20.4798,VALID,271,VALID,1.13203,
2009-09-14, 00:59:05,VALID,918.073,VALID,0,VALID,96.9622,VALID,0.107441,VALID,20.4603,VALID,271,VALID,1.08477,
2009-09-14, 01:00:05,VALID,918.036,VALID,0,VALID,97.0003,VALID,0,VALID,20.4408,VALID,271,VALID,0.599219,
2009-09-14, 01:01:05,VALID,918.049,VALID,0,VALID,97.0232,VALID,0,VALID,20.4782,VALID,271,VALID,0.510156,
2009-09-14, 01:02:05,VALID,918.034,VALID,0,VALID,96.9927,VALID,0,VALID,20.4993,VALID,271,VALID,0.488672,
2009-09-14, 01:03:05,VALID,918.021,VALID,0,VALID,96.9851,VALID,0,VALID,20.4603,VALID,17,VALID,0.798437,
2009-09-14, 01:04:05,VALID,918.004,VALID,0,VALID,96.9775,VALID,0,VALID,20.4798,VALID,17,VALID,0.555859,
2009-09-14, 01:05:05,VALID,917.993,VALID,0,VALID,97.0156,VALID,0.107441,VALID,20.4993,VALID,17,VALID,0.475781,
2009-09-14, 01:06:05,VALID,917.982,VALID,0,VALID,97.0308,VALID,0,VALID,20.5188,VALID,17,VALID,0.391016,
2009-09-14, 01:07:05,VALID,917.982,VALID,0,VALID,96.9241,VALID,0,VALID,20.4798,VALID,17,VALID,0.346484,
2009-09-14, 01:08:05,VALID,917.981,VALID,0,VALID,96.9394,VALID,0,VALID,20.4798,VALID,17,VALID,0.466406,
2009-09-14, 01:09:05,VALID,917.957,VALID,0,VALID,96.9698,VALID,0,VALID,20.4798,VALID,17,VALID,0.205859,
2009-09-14, 01:10:05,VALID,917.927,VALID,0,VALID,96.9394,VALID,0,VALID,20.4798,VALID,17,VALID,0.408594,
2009-09-14, 01:11:05,VALID,917.913,VALID,0,VALID,96.8555,VALID,0,VALID,20.4408,VALID,17,VALID,0.379297,
2009-09-14, 01:12:05,VALID,917.87,VALID,0,VALID,96.886,VALID,0.107441,VALID,20.4213,VALID,17,VALID,0.432813,
2009-09-14, 01:13:05,VALID,917.836,VALID,0,VALID,96.8326,VALID,0,VALID,20.3823,VALID,17,VALID,0.557031,
2009-09-14, 01:14:05,VALID,917.81,VALID,0,VALID,96.8936,VALID,0,VALID,20.3838,VALID,17,VALID,0.236719,
2009-09-14, 01:15:05,VALID,917.793,VALID,0,VALID,96.886,VALID,0,VALID,20.3433,VALID,17,VALID,0.241016,
2009-09-14, 01:16:05,VALID,917.781,VALID,0,VALID,96.8936,VALID,0,VALID,20.3448,VALID,17,VALID,0.437109,
2009-09-14, 01:17:05,VALID,917.771,VALID,0,VALID,96.9012,VALID,0,VALID,20.3433,VALID,17,VALID,0.309766,
2009-09-14, 01:18:05,VALID,917.751,VALID,0,VALID,96.8479,VALID,0,VALID,20.3043,VALID,17,VALID,0.411328,
2009-09-14, 01:19:05,VALID,917.775,VALID,0,VALID,96.8631,VALID,0,VALID,20.2848,VALID,17,VALID,0.326953,
2009-09-14, 01:20:05,VALID,917.749,VALID,0,VALID,96.9012,VALID,0,VALID,20.3058,VALID,17,VALID,0.301562,
2009-09-14, 01:21:05,VALID,917.677,VALID,0,VALID,96.9089,VALID,0,VALID,20.2848,VALID,17,VALID,0.2,
2009-09-14, 01:22:05,VALID,917.681,VALID,0,VALID,96.8174,VALID,0,VALID,20.2263,VALID,17,VALID,0.785156,
2009-09-14, 01:23:05,VALID,917.686,VALID,0,VALID,96.7716,VALID,0,VALID,20.1693,VALID,17,VALID,0.893359,
2009-09-14, 01:24:05,VALID,917.644,VALID,0,VALID,96.8326,VALID,0,VALID,20.1498,VALID,17,VALID,0.664063,
2009-09-14, 01:25:05,VALID,917.62,VALID,0,VALID,96.7869,VALID,0,VALID,20.0898,VALID,17,VALID,0.7625,
2009-09-14, 01:26:05,VALID,917.607,VALID,0,VALID,96.8326,VALID,0,VALID,20.0898,VALID,17,VALID,0.616797,
2009-09-14, 01:27:05,VALID,917.596,VALID,0,VALID,96.8555,VALID,0,VALID,20.0508,VALID,36,VALID,1.01484,
2009-09-14, 01:28:05,VALID,917.543,VALID,0,VALID,96.8555,VALID,0,VALID,20.0313,VALID,124,VALID,1.19023,
2009-09-14, 01:29:05,VALID,917.543,VALID,0,VALID,96.8631,VALID,0,VALID,20.0118,VALID,125,VALID,1.39336,
2009-09-14, 01:30:05,VALID,917.516,VALID,0,VALID,96.8631,VALID,0,VALID,19.9728,VALID,126,VALID,1.18516,
2009-09-14, 01:31:05,VALID,917.453,VALID,0,VALID,96.8707,VALID,0,VALID,19.9353,VALID,126,VALID,1.16094,
2009-09-14, 01:32:05,VALID,917.456,VALID,0,VALID,96.9089,VALID,0,VALID,19.9158,VALID,126,VALID,1.42695,
2009-09-14, 01:33:05,VALID,917.427,VALID,0,VALID,96.9165,VALID,0,VALID,19.8753,VALID,126,VALID,0.812891,
2009-09-14, 01:34:05,VALID,917.392,VALID,0,VALID,96.9394,VALID,0,VALID,19.8768,VALID,133,VALID,1.14922,
2009-09-14, 01:35:05,VALID,917.375,VALID,0,VALID,96.9622,VALID,0,VALID,19.8378,VALID,137,VALID,1.07461,
2009-09-14, 01:36:05,VALID,917.383,VALID,0,VALID,96.9775,VALID,0,VALID,19.8168,VALID,138,VALID,0.991016,
2009-09-14, 01:37:05,VALID,917.34,VALID,0,VALID,97.0156,VALID,0,VALID,19.8168,VALID,138,VALID,1.0875,
2009-09-14, 01:38:05,VALID,917.363,VALID,0,VALID,97.0613,VALID,0,VALID,19.7973,VALID,154,VALID,1.18984,
2009-09-14, 01:39:05,VALID,917.364,VALID,0,VALID,97.0842,VALID,0,VALID,19.8378,VALID,154,VALID,1.30547,
2009-09-14, 01:40:05,VALID,917.355,VALID,0,VALID,97.1223,VALID,0,VALID,19.8168,VALID,154,VALID,0.964063,
2009-09-14, 01:41:05,VALID,917.338,VALID,0,VALID,97.0994,VALID,0,VALID,19.8378,VALID,154,VALID,0.934766,
2009-09-14, 01:42:05,VALID,917.339,VALID,0,VALID,97.1376,VALID,0,VALID,19.8363,VALID,154,VALID,0.747266,
2009-09-14, 01:43:05,VALID,917.329,VALID,0,VALID,97.1681,VALID,0.107441,VALID,19.8558,VALID,154,VALID,0.58125,
2009-09-14, 01:44:05,VALID,917.335,VALID,0,VALID,97.1909,VALID,0,VALID,19.8753,VALID,154,VALID,0.577734,
2009-09-14, 01:45:05,VALID,917.282,VALID,0,VALID,97.1757,VALID,0,VALID,19.8963,VALID,154,VALID,0.412109,
2009-09-14, 01:46:05,VALID,917.273,VALID,0,VALID,97.2214,VALID,0,VALID,19.9353,VALID,168,VALID,0.543359,
2009-09-14, 01:47:04,VALID,917.234,VALID,0,VALID,97.1986,VALID,0,VALID,19.9548,VALID,168,VALID,0.743359,
2009-09-14, 01:48:04,VALID,917.205,VALID,0,VALID,97.1986,VALID,0,VALID,19.9143,VALID,168,VALID,0.772656,
2009-09-14, 01:49:04,VALID,917.196,VALID,0,VALID,97.1986,VALID,0,VALID,19.9143,VALID,168,VALID,0.448438,
2009-09-14, 01:50:04,VALID,917.186,VALID,0,VALID,97.1833,VALID,0,VALID,19.9143,VALID,168,VALID,0.542188,
2009-09-14, 01:51:04,VALID,917.17,VALID,0,VALID,97.2138,VALID,0,VALID,19.9548,VALID,168,VALID,0.407813,
2009-09-14, 01:52:04,VALID,917.188,VALID,0,VALID,97.1909,VALID,0,VALID,19.9338,VALID,168,VALID,0.723437,
2009-09-14, 01:53:04,VALID,917.195,VALID,0,VALID,97.2138,VALID,0,VALID,19.9143,VALID,168,VALID,0.6875,
2009-09-14, 01:54:04,VALID,917.174,VALID,0,VALID,97.2138,VALID,0,VALID,19.9143,VALID,168,VALID,0.812891,
2009-09-14, 01:55:04,VALID,917.168,VALID,0,VALID,97.1833,VALID,0,VALID,19.9353,VALID,168,VALID,1.11602,
2009-09-14, 01:56:04,VALID,917.161,VALID,0,VALID,97.1986,VALID,0,VALID,19.9158,VALID,168,VALID,0.9125,
2009-09-14, 01:57:04,VALID,917.132,VALID,0,VALID,97.1909,VALID,0,VALID,19.8948,VALID,168,VALID,1.22109,
2009-09-14, 01:58:04,VALID,917.117,VALID,0,VALID,97.2062,VALID,0,VALID,19.8963,VALID,180,VALID,0.974219,
2009-09-14, 01:59:04,VALID,917.086,VALID,0,VALID,97.2062,VALID,0,VALID,19.8753,VALID,180,VALID,0.375781,
2009-09-14, 02:00:04,VALID,917.032,VALID,0,VALID,97.2519,VALID,0,VALID,19.8753,VALID,180,VALID,0.408203,
2009-09-14, 02:01:04,VALID,917.064,VALID,0,VALID,97.2519,VALID,0,VALID,19.9353,VALID,180,VALID,0.406641,
2009-09-14, 02:02:04,VALID,917.038,VALID,0,VALID,97.2367,VALID,0,VALID,19.8948,VALID,180,VALID,0.745703,
2009-09-14, 02:03:04,VALID,917.02,VALID,0,VALID,97.2062,VALID,0,VALID,19.8558,VALID,180,VALID,1.18086,
2009-09-14, 02:04:04,VALID,916.996,VALID,0,VALID,97.2062,VALID,0,VALID,19.8363,VALID,182,VALID,0.905078,
2009-09-14, 02:05:04,VALID,916.995,VALID,0,VALID,97.1986,VALID,0,VALID,19.8363,VALID,182,VALID,0.65625,
2009-09-14, 02:06:04,VALID,916.987,VALID,0,VALID,97.229,VALID,0,VALID,19.8363,VALID,182,VALID,0.48125,
2009-09-14, 02:07:04,VALID,917.008,VALID,0,VALID,97.2062,VALID,0,VALID,19.8168,VALID,182,VALID,0.544531,
2009-09-14, 02:08:04,VALID,916.969,VALID,0,VALID,97.2138,VALID,0,VALID,19.8378,VALID,182,VALID,0.674219,
2009-09-14, 02:09:04,VALID,916.985,VALID,0,VALID,97.2443,VALID,0.107441,VALID,19.8168,VALID,182,VALID,0.606641,
2009-09-14, 02:10:04,VALID,916.996,VALID,0,VALID,97.2672,VALID,0,VALID,19.8363,VALID,182,VALID,0.607813,
2009-09-14, 02:11:04,VALID,917.004,VALID,0,VALID,97.2748,VALID,0,VALID,19.8378,VALID,182,VALID,0.839063,
2009-09-14, 02:12:04,VALID,916.981,VALID,0,VALID,97.2672,VALID,0,VALID,19.8168,VALID,182,VALID,0.487109,
2009-09-14, 02:13:04,VALID,916.958,VALID,0,VALID,97.2672,VALID,0,VALID,19.8168,VALID,182,VALID,0.53125,
2009-09-14, 02:14:04,VALID,916.977,VALID,0,VALID,97.29,VALID,0,VALID,19.8168,VALID,182,VALID,0.108203,
2009-09-14, 02:15:04,VALID,916.994,VALID,0,VALID,97.2595,VALID,0,VALID,19.8378,VALID,182,VALID,0.046875,
2009-09-14, 02:16:04,VALID,916.978,VALID,0,VALID,97.2595,VALID,0,VALID,19.8168,VALID,182,VALID,0.322266,
2009-09-14, 02:17:04,VALID,916.992,VALID,0,VALID,97.29,VALID,0,VALID,19.8378,VALID,182,VALID,0.145703,
2009-09-14, 02:18:04,VALID,916.983,VALID,0,VALID,97.2595,VALID,0,VALID,19.8378,VALID,182,VALID,0.713672,
2009-09-14, 02:19:04,VALID,917.005,VALID,0,VALID,97.2519,VALID,0,VALID,19.7973,VALID,182,VALID,0.763672,
2009-09-14, 02:20:04,VALID,916.994,VALID,0,VALID,97.2672,VALID,0,VALID,19.8183,VALID,182,VALID,0.606641,
2009-09-14, 02:21:04,VALID,917.003,VALID,0,VALID,97.2519,VALID,0,VALID,19.7793,VALID,182,VALID,0.673437,
2009-09-14, 02:22:04,VALID,917.007,VALID,0,VALID,97.2672,VALID,0,VALID,19.7778,VALID,182,VALID,0.747656,
2009-09-14, 02:23:04,VALID,916.978,VALID,0,VALID,97.2748,VALID,0,VALID,19.7583,VALID,182,VALID,0.740234,
2009-09-14, 02:24:04,VALID,916.971,VALID,0,VALID,97.3053,VALID,0,VALID,19.7793,VALID,182,VALID,0.432813,
2009-09-14, 02:25:04,VALID,916.964,VALID,0,VALID,97.29,VALID,0,VALID,19.7793,VALID,182,VALID,0.363672,
2009-09-14, 02:26:04,VALID,916.977,VALID,0,VALID,97.2824,VALID,0,VALID,19.7793,VALID,182,VALID,0.926172,
2009-09-14, 02:27:04,VALID,916.957,VALID,0,VALID,97.2672,VALID,0,VALID,19.7403,VALID,182,VALID,0.288281,
2009-09-14, 02:28:04,VALID,917.001,VALID,0,VALID,97.2595,VALID,0,VALID,19.7208,VALID,182,VALID,0.126563,
2009-09-14, 02:29:04,VALID,916.964,VALID,0,VALID,97.2595,VALID,0,VALID,19.6803,VALID,182,VALID,0.235547,
2009-09-14, 02:30:04,VALID,916.974,VALID,0,VALID,97.2824,VALID,0,VALID,19.7013,VALID,182,VALID,0.274219,
2009-09-14, 02:31:04,VALID,917.004,VALID,0,VALID,97.2672,VALID,0,VALID,19.7013,VALID,182,VALID,0.260938,
2009-09-14, 02:32:04,VALID,917.031,VALID,0,VALID,97.2595,VALID,0,VALID,19.7013,VALID,182,VALID,0.369531,
2009-09-14, 02:33:04,VALID,917.009,VALID,0,VALID,97.2977,VALID,0,VALID,19.6818,VALID,182,VALID,0.488672,
2009-09-14, 02:34:04,VALID,917.031,VALID,0,VALID,97.2443,VALID,0,VALID,19.6623,VALID,182,VALID,0.336328,
2009-09-14, 02:35:04,VALID,917.032,VALID,0,VALID,97.2824,VALID,0,VALID,19.6623,VALID,182,VALID,0.159375,
2009-09-14, 02:36:04,VALID,917.066,VALID,0,VALID,97.2977,VALID,0,VALID,19.6428,VALID,182,VALID,0.448438,
2009-09-14, 02:37:04,VALID,917.086,VALID,0,VALID,97.2824,VALID,0,VALID,19.6233,VALID,182,VALID,0.509375,
2009-09-14, 02:38:04,VALID,917.082,VALID,0,VALID,97.2824,VALID,0,VALID,19.6023,VALID,182,VALID,0.631641,
2009-09-14, 02:39:04,VALID,917.085,VALID,0,VALID,97.2977,VALID,0,VALID,19.6038,VALID,182,VALID,0.55625,
2009-09-14, 02:40:04,VALID,917.138,VALID,0,VALID,97.29,VALID,0,VALID,19.6038,VALID,182,VALID,0.538672,
2009-09-14, 02:41:04,VALID,917.116,VALID,0,VALID,97.3053,VALID,0,VALID,19.6038,VALID,182,VALID,0.428906,
2009-09-14, 02:42:04,VALID,917.124,VALID,0,VALID,97.3281,VALID,0.107441,VALID,19.6023,VALID,182,VALID,0.833594,
2009-09-14, 02:43:04,VALID,917.111,VALID,0,VALID,97.3281,VALID,0,VALID,19.6623,VALID,182,VALID,0.584375,
2009-09-14, 02:44:04,VALID,917.108,VALID,0,VALID,97.3281,VALID,0,VALID,19.6623,VALID,182,VALID,0.453125,
2009-09-14, 02:45:04,VALID,917.11,VALID,0,VALID,97.3358,VALID,0,VALID,19.6818,VALID,182,VALID,0.262891,
2009-09-14, 02:46:04,VALID,917.106,VALID,0,VALID,97.3358,VALID,0,VALID,19.6818,VALID,182,VALID,0,
2009-09-14, 02:47:04,VALID,917.098,VALID,0,VALID,97.3205,VALID,0.107441,VALID,19.6818,VALID,182,VALID,0.417578,
2009-09-14, 02:48:04,VALID,917.107,VALID,0,VALID,97.2824,VALID,0,VALID,19.6623,VALID,182,VALID,0.500781,
2009-09-14, 02:49:04,VALID,917.097,VALID,0,VALID,97.2519,VALID,0,VALID,19.6218,VALID,182,VALID,0.688672,
2009-09-14, 02:50:04,VALID,917.101,VALID,0,VALID,97.2977,VALID,0,VALID,19.6428,VALID,182,VALID,1.10781,
2009-09-14, 02:51:04,VALID,917.114,VALID,0,VALID,97.29,VALID,0,VALID,19.6218,VALID,182,VALID,0.924609,
2009-09-14, 02:52:04,VALID,917.084,VALID,0,VALID,97.2748,VALID,0,VALID,19.6413,VALID,182,VALID,0.805859,
2009-09-14, 02:53:04,VALID,917.138,VALID,0,VALID,97.2977,VALID,0.107441,VALID,19.6413,VALID,182,VALID,0.352344,
2009-09-14, 02:54:04,VALID,917.143,VALID,0,VALID,97.3053,VALID,0,VALID,19.6818,VALID,182,VALID,0.819922,
2009-09-14, 02:55:04,VALID,917.128,VALID,0,VALID,97.3205,VALID,0,VALID,19.6818,VALID,182,VALID,0.554297,
2009-09-14, 02:56:04,VALID,917.172,VALID,0,VALID,97.3129,VALID,0,VALID,19.6818,VALID,182,VALID,0.430078,
2009-09-14, 02:57:04,VALID,917.201,VALID,0,VALID,97.3129,VALID,0,VALID,19.6818,VALID,182,VALID,0.562891,
2009-09-14, 02:58:04,VALID,917.179,VALID,0,VALID,97.3281,VALID,0,VALID,19.6818,VALID,182,VALID,0.665234,
2009-09-14, 02:59:04,VALID,917.188,VALID,0,VALID,97.2824,VALID,0,VALID,19.7013,VALID,182,VALID,0.63125,
2009-09-14, 03:00:04,VALID,917.196,VALID,0,VALID,97.2977,VALID,0,VALID,19.6998,VALID,182,VALID,0.702344,
2009-09-14, 03:01:04,VALID,917.194,VALID,0,VALID,97.229,VALID,0,VALID,19.7013,VALID,182,VALID,0.864844,
2009-09-14, 03:02:04,VALID,917.195,VALID,0,VALID,97.1833,VALID,0,VALID,19.6623,VALID,182,VALID,0.6875,
2009-09-14, 03:03:04,VALID,917.173,VALID,0,VALID,97.2367,VALID,0,VALID,19.6818,VALID,182,VALID,0.825,
2009-09-14, 03:04:04,VALID,917.176,VALID,0,VALID,97.1833,VALID,0,VALID,19.6218,VALID,182,VALID,1.02422,
2009-09-14, 03:05:04,VALID,917.172,VALID,0,VALID,97.1604,VALID,0,VALID,19.6038,VALID,181,VALID,1.15977,
2009-09-14, 03:06:04,VALID,917.19,VALID,0,VALID,97.1604,VALID,0,VALID,19.6038,VALID,181,VALID,1.13164,
2009-09-14, 03:07:04,VALID,917.221,VALID,0,VALID,97.2214,VALID,0,VALID,19.5828,VALID,181,VALID,0.913281,
2009-09-14, 03:08:04,VALID,917.178,VALID,0,VALID,97.1909,VALID,0,VALID,19.5843,VALID,181,VALID,1.03867,
2009-09-14, 03:09:04,VALID,917.19,VALID,0,VALID,97.1909,VALID,0,VALID,19.5438,VALID,180,VALID,1.0957,
2009-09-14, 03:10:04,VALID,917.181,VALID,0,VALID,97.2062,VALID,0,VALID,19.5648,VALID,180,VALID,0.907031,
2009-09-14, 03:11:04,VALID,917.191,VALID,0,VALID,97.2214,VALID,0,VALID,19.5453,VALID,180,VALID,0.793359,
2009-09-14, 03:12:04,VALID,917.208,VALID,0,VALID,97.229,VALID,0,VALID,19.5243,VALID,180,VALID,0.526172,
2009-09-14, 03:13:04,VALID,917.217,VALID,0,VALID,97.2748,VALID,0.107441,VALID,19.5438,VALID,180,VALID,0,
2009-09-14, 03:14:04,VALID,917.227,VALID,0,VALID,97.2519,VALID,0,VALID,19.5438,VALID,180,VALID,0.421875,
2009-09-14, 03:15:04,VALID,917.266,VALID,0,VALID,97.29,VALID,0,VALID,19.5843,VALID,180,VALID,0.625781,
2009-09-14, 03:16:04,VALID,917.252,VALID,0,VALID,97.3053,VALID,0,VALID,19.6233,VALID,180,VALID,0.480078,
2009-09-14, 03:17:04,VALID,917.258,VALID,0,VALID,97.2595,VALID,0,VALID,19.6233,VALID,180,VALID,0.519531,
2009-09-14, 03:18:04,VALID,917.22,VALID,0,VALID,97.2367,VALID,0,VALID,19.6428,VALID,180,VALID,0.49375,
2009-09-14, 03:19:04,VALID,917.266,VALID,0,VALID,97.2062,VALID,0,VALID,19.6218,VALID,180,VALID,0.552734,
2009-09-14, 03:20:04,VALID,917.234,VALID,0,VALID,97.2138,VALID,0,VALID,19.6218,VALID,180,VALID,0.579687,
2009-09-14, 03:21:04,VALID,917.259,VALID,0,VALID,97.1757,VALID,0,VALID,19.6233,VALID,180,VALID,0.542578,
2009-09-14, 03:22:04,VALID,917.253,VALID,0,VALID,97.1604,VALID,0,VALID,19.6038,VALID,180,VALID,0.694141,
2009-09-14, 03:23:04,VALID,917.269,VALID,0,VALID,97.1909,VALID,0,VALID,19.6038,VALID,180,VALID,0.296484,
2009-09-14, 03:24:04,VALID,917.251,VALID,0,VALID,97.229,VALID,0,VALID,19.6428,VALID,180,VALID,0.272266,
2009-09-14, 03:25:04,VALID,917.291,VALID,0,VALID,97.2824,VALID,0,VALID,19.6608,VALID,180,VALID,0.265234,
2009-09-14, 03:26:04,VALID,917.256,VALID,0,VALID,97.2824,VALID,0,VALID,19.6998,VALID,180,VALID,0.164063,
2009-09-14, 03:27:04,VALID,917.262,VALID,0,VALID,97.29,VALID,0,VALID,19.6998,VALID,180,VALID,0.170703,
2009-09-14, 03:28:04,VALID,917.256,VALID,0,VALID,97.2519,VALID,0,VALID,19.7403,VALID,180,VALID,0.100391,
2009-09-14, 03:29:04,VALID,917.275,VALID,0,VALID,97.229,VALID,0,VALID,19.7208,VALID,180,VALID,0,
2009-09-14, 03:30:04,VALID,917.279,VALID,0,VALID,97.2138,VALID,0,VALID,19.7193,VALID,180,VALID,0.449609,
2009-09-14, 03:31:04,VALID,917.292,VALID,0,VALID,97.1452,VALID,0,VALID,19.6998,VALID,180,VALID,0.488672,
2009-09-14, 03:32:04,VALID,917.289,VALID,0,VALID,97.1528,VALID,0,VALID,19.7013,VALID,180,VALID,0.814062,
2009-09-14, 03:33:04,VALID,917.269,VALID,0,VALID,97.0918,VALID,0,VALID,19.6413,VALID,180,VALID,1.04414,
2009-09-14, 03:34:04,VALID,917.263,VALID,0,VALID,96.9546,VALID,0,VALID,19.5633,VALID,180,VALID,1.26367,
2009-09-14, 03:35:04,VALID,917.282,VALID,0,VALID,97.008,VALID,0,VALID,19.5633,VALID,180,VALID,0.966797,
2009-09-14, 03:36:04,VALID,917.291,VALID,0,VALID,96.947,VALID,0,VALID,19.5843,VALID,180,VALID,1.06211,
2009-09-14, 03:37:04,VALID,917.265,VALID,0,VALID,96.8784,VALID,0,VALID,19.5828,VALID,180,VALID,1.06133,
2009-09-14, 03:38:04,VALID,917.305,VALID,0,VALID,96.8555,VALID,0,VALID,19.6038,VALID,180,VALID,0.880078,
2009-09-14, 03:39:04,VALID,917.294,VALID,0,VALID,96.8021,VALID,0,VALID,19.5828,VALID,180,VALID,0.876172,
2009-09-14, 03:40:04,VALID,917.319,VALID,0,VALID,96.7564,VALID,0,VALID,19.6038,VALID,180,VALID,0.680078,
2009-09-14, 03:41:04,VALID,917.338,VALID,0,VALID,96.6649,VALID,0,VALID,19.6038,VALID,180,VALID,0.767187,
2009-09-14, 03:42:04,VALID,917.374,VALID,0,VALID,96.6039,VALID,0,VALID,19.6233,VALID,180,VALID,0.706641,
2009-09-14, 03:43:04,VALID,917.351,VALID,0,VALID,96.5124,VALID,0,VALID,19.6038,VALID,92,VALID,1.11406,
2009-09-14, 03:44:04,VALID,917.388,VALID,0,VALID,96.4133,VALID,0,VALID,19.6218,VALID,75,VALID,0.817578,